Change the Weather History Date:

Friday, November 25, 2011

  Actual Average Record
Temperature  
Mean Temperature 49 °F 31 °F  
Max Temperature 53 °F 41 °F 60 °F (1997)
Min Temperature 45 °F 22 °F 6 °F (1996)
Degree Days  
Heating Degree Days 16 34  
Month to date heating degree days 601 685  
Since 1 July heating degree days 1170 1318  
Cooling Degree Days 0 0  
Month to date cooling degree days 0 0  
Year to date cooling degree days 896 728  
Moisture  
Dew Point 42 °F    
Average Humidity 71    
Maximum Humidity 83    
Minimum Humidity 59    
Precipitation  
Precipitation 0.02 in 0.05 in 0.02 in (2011)
Month to date precipitation 1.81 2.02  
Year to date precipitation 24.64  
Sea Level Pressure  
Sea Level Pressure 29.78 in    
Wind  
Wind Speed 14 mph (South)    
Max Wind Speed 22 mph    
Max Gust Speed 28 mph    
Visibility 9 miles    
Events Rain    
T = Trace of Precipitation, MM = Missing Value Source: NWS Daily Summary

Daily Weather History Graph

Daily Weather History Graph

Search for Another Location

Airport or City:

Trip Planner

Search our weather history database for the weather conditions in past years. The results will help you decide how hot, cold, wet, or windy it might be!

Date:

Astronomy

Nov. 25, 2011 Rise Set
Actual Time 7:13 AM CST 4:43 PM CST
Civil Twilight 6:42 AM CST 5:14 PM CST
Nautical Twilight 6:08 AM CST 5:48 PM CST
Astronomical Twilight 5:34 AM CST 6:22 PM CST
Moon 7:43 AM CST (11/25) 5:10 PM CST (11/25)
Length of Visible Light 10h 31m
Length of Day
9h 29m
New Moon, 0% of the Moon is Illuminated
Nov 25
New Moon
Dec 2
First Quarter
Dec 10
Full
Dec 17
Last Quarter
Dec 24
New

Hourly Weather History & Observations

Time (CST) Temp. Windchill Dew Point Humidity Pressure Visibility Wind Dir Wind Speed Gust Speed Precip Events Conditions
1:53 AM 50.0 °F - 39.0 °F 66% 29.83 in 10.0 mi South 15.0 mph 24.2 mph N/A   Clear
2:53 AM 48.0 °F - 39.0 °F 71% 29.83 in 10.0 mi SSW 15.0 mph - N/A   Clear
3:53 AM 46.9 °F - 39.0 °F 74% 29.83 in 10.0 mi South 11.5 mph - N/A   Clear
4:53 AM 46.0 °F 39.6 °F 39.0 °F 76% 29.82 in 10.0 mi South 15.0 mph - N/A   Clear
5:53 AM 46.0 °F 40.6 °F 39.9 °F 79% 29.82 in 10.0 mi South 11.5 mph - N/A   Clear
6:53 AM 46.0 °F 40.2 °F 39.9 °F 79% 29.81 in 10.0 mi South 12.7 mph - N/A   Clear
7:53 AM 45.0 °F 38.9 °F 39.9 °F 82% 29.81 in 10.0 mi South 12.7 mph - N/A   Clear
8:53 AM 46.9 °F - 41.0 °F 80% 29.81 in 10.0 mi South 17.3 mph 23.0 mph N/A   Mostly Cloudy
9:53 AM 48.0 °F - 42.1 °F 80% 29.82 in 10.0 mi SSW 17.3 mph 24.2 mph N/A   Overcast
10:53 AM 48.9 °F - 43.0 °F 80% 29.82 in 10.0 mi SSW 13.8 mph 24.2 mph N/A   Overcast
11:50 AM 50.0 °F - 42.8 °F 76% 29.78 in 10.0 mi SSW 18.4 mph 25.3 mph N/A   Overcast
11:53 AM 50.0 °F - 43.0 °F 77% 29.79 in 10.0 mi SSW 17.3 mph 25.3 mph N/A   Overcast
1:53 PM 51.1 °F - 43.0 °F 74% 29.75 in 8.0 mi SSW 13.8 mph 24.2 mph N/A   Overcast
2:53 PM 50.0 °F - 43.0 °F 77% 29.75 in 7.0 mi South 15.0 mph 21.9 mph N/A   Overcast
3:53 PM 51.1 °F - 44.1 °F 77% 29.75 in 7.0 mi South 15.0 mph - N/A   Overcast
4:53 PM 50.0 °F - 44.1 °F 80% 29.75 in 8.0 mi South 12.7 mph - N/A   Overcast
5:53 PM 50.0 °F - 44.1 °F 80% 29.75 in 8.0 mi South 12.7 mph - N/A   Overcast
6:53 PM 51.1 °F - 45.0 °F 80% 29.74 in 8.0 mi SSE 12.7 mph - N/A   Overcast
7:53 PM 52.0 °F - 46.0 °F 80% 29.74 in 8.0 mi South 13.8 mph - N/A   Overcast
8:53 PM 53.1 °F - 46.0 °F 77% 29.73 in 9.0 mi South 13.8 mph - N/A   Overcast
10:53 PM 52.0 °F - 46.9 °F 83% 29.72 in 8.0 mi SSE 12.7 mph - 0.00 in Rain Light Rain